Time,TemperatureF,DewpointF,PressureIn,WindDirection,WindDirectionDegrees,WindSpeedMPH,WindSpeedGustMPH,Humidity,HourlyPrecipIn,Conditions,Clouds,dailyrainin,SoftwareType,DateUTC
2013-07-11 00:07:00,57.6,50.7,29.93,NNW,330,0.0,6.0,78,0.00,,,-99.99,Weather View 32 v60,2013-07-11 07:07:00,
2013-07-11 00:19:00,57.2,51.1,29.93,North,351,0.0,0.0,80,0.00,,,-99.99,Weather View 32 v60,2013-07-11 07:19:00,
2013-07-11 00:29:00,57.0,51.2,29.93,NNW,340,0.0,0.0,81,0.00,,,-99.99,Weather View 32 v60,2013-07-11 07:29:00,
2013-07-11 00:39:00,56.8,51.1,29.93,NW,318,0.0,0.0,81,0.00,,,-99.99,Weather View 32 v60,2013-07-11 07:39:00,
2013-07-11 00:49:00,56.7,51.2,29.93,NW,311,0.0,0.0,82,0.00,,,-99.99,Weather View 32 v60,2013-07-11 07:49:00,
2013-07-11 01:00:00,56.5,51.4,29.93,NNW,335,0.0,0.0,83,0.00,,,-99.99,Weather View 32 v60,2013-07-11 08:00:00,
2013-07-11 01:07:00,56.5,51.4,29.93,NNW,335,0.0,0.0,83,0.00,,,-99.99,Weather View 32 v60,2013-07-11 08:07:00,
2013-07-11 01:20:00,56.3,51.5,29.93,WNW,299,0.0,0.0,84,0.00,,,-99.99,Weather View 32 v60,2013-07-11 08:20:00,
2013-07-11 01:30:00,56.1,51.7,29.93,West,276,0.0,0.0,85,0.00,,,-99.99,Weather View 32 v60,2013-07-11 08:30:00,
2013-07-11 01:39:00,55.9,51.8,29.93,NW,310,0.0,4.0,86,0.00,,,-99.99,Weather View 32 v60,2013-07-11 08:39:00,
2013-07-11 01:49:00,55.9,52.1,29.93,NW,321,0.0,4.0,87,0.00,,,-99.99,Weather View 32 v60,2013-07-11 08:49:00,
2013-07-11 01:59:00,55.8,51.9,29.93,NW,318,0.0,4.0,87,0.00,,,-99.99,Weather View 32 v60,2013-07-11 08:59:00,
2013-07-11 02:08:00,55.8,51.9,29.93,NW,318,0.0,4.0,87,0.00,,,-99.99,Weather View 32 v60,2013-07-11 09:08:00,
2013-07-11 02:19:00,55.8,52.6,29.93,West,275,0.0,4.0,89,0.00,,,-99.99,Weather View 32 v60,2013-07-11 09:19:00,
2013-07-11 02:29:00,55.8,52.9,29.93,NNW,335,0.0,4.0,90,0.00,,,-99.99,Weather View 32 v60,2013-07-11 09:29:00,
2013-07-11 02:39:00,55.8,53.2,29.93,NNW,344,0.0,3.0,91,0.00,,,-99.99,Weather View 32 v60,2013-07-11 09:39:00,
2013-07-11 02:49:00,55.6,53.3,29.93,WNW,291,0.0,4.0,92,0.00,,,-99.99,Weather View 32 v60,2013-07-11 09:49:00,
2013-07-11 02:59:00,55.4,53.1,29.93,NNW,338,0.0,4.0,92,0.00,,,-99.99,Weather View 32 v60,2013-07-11 09:59:00,
2013-07-11 03:08:00,55.4,53.1,29.93,NNW,338,0.0,4.0,92,0.00,,,-99.99,Weather View 32 v60,2013-07-11 10:08:00,
2013-07-11 03:20:00,55.0,53.0,29.93,West,281,0.0,4.0,93,0.00,,,-99.99,Weather View 32 v60,2013-07-11 10:20:00,
2013-07-11 03:29:00,55.0,53.0,29.93,NW,305,0.0,4.0,93,0.00,,,-99.99,Weather View 32 v60,2013-07-11 10:29:00,
2013-07-11 03:39:00,54.9,52.9,29.93,NW,320,0.0,4.0,93,0.00,,,-99.99,Weather View 32 v60,2013-07-11 10:39:00,
2013-07-11 03:49:00,55.0,53.0,29.93,North,351,0.0,3.0,93,0.00,,,-99.99,Weather View 32 v60,2013-07-11 10:49:00,
2013-07-11 03:59:00,55.4,53.4,29.93,NW,306,0.0,0.0,93,0.00,,,-99.99,Weather View 32 v60,2013-07-11 10:59:00,
2013-07-11 04:09:00,55.4,53.4,29.93,NW,306,0.0,0.0,93,0.00,,,-99.99,Weather View 32 v60,2013-07-11 11:09:00,
2013-07-11 04:19:00,56.1,54.1,29.93,NW,313,0.0,0.0,93,0.00,,,-99.99,Weather View 32 v60,2013-07-11 11:19:00,
2013-07-11 04:29:00,56.5,54.5,29.93,NNE,19,0.0,0.0,93,0.00,,,-99.99,Weather View 32 v60,2013-07-11 11:29:00,
2013-07-11 04:40:00,56.7,54.4,29.93,NNW,346,0.0,0.0,92,0.00,,,-99.99,Weather View 32 v60,2013-07-11 11:40:00,
2013-07-11 04:49:00,56.7,54.1,29.93,North,351,0.0,0.0,91,0.00,,,-99.99,Weather View 32 v60,2013-07-11 11:49:00,
2013-07-11 04:59:00,56.7,53.8,29.93,NNW,334,0.0,3.0,90,0.00,,,-99.99,Weather View 32 v60,2013-07-11 11:59:00,
2013-07-11 05:09:00,56.7,53.4,29.93,NNW,334,0.0,3.0,89,0.00,,,-99.99,Weather View 32 v60,2013-07-11 12:09:00,
2013-07-11 05:19:00,56.7,53.1,29.93,WNW,302,0.0,3.0,88,0.00,,,-99.99,Weather View 32 v60,2013-07-11 12:19:00,
2013-07-11 05:29:00,56.7,53.1,29.93,NE,38,0.0,3.0,88,0.00,,,-99.99,Weather View 32 v60,2013-07-11 12:29:00,
2013-07-11 05:39:00,56.7,52.5,29.93,NNW,334,0.0,3.0,86,0.00,,,-99.99,Weather View 32 v60,2013-07-11 12:39:00,
2013-07-11 05:49:00,56.8,52.4,29.93,North,351,0.0,3.0,85,0.00,,,-99.99,Weather View 32 v60,2013-07-11 12:49:00,
2013-07-11 05:59:00,57.0,52.5,29.93,SW,230,0.0,0.0,85,0.00,,,-99.99,Weather View 32 v60,2013-07-11 12:59:00,
2013-07-11 06:10:00,57.0,52.5,29.96,WSW,250,0.0,0.0,85,0.00,,,-99.99,Weather View 32 v60,2013-07-11 13:10:00,
2013-07-11 06:19:00,57.0,52.2,29.96,NNW,336,0.0,0.0,84,0.00,,,-99.99,Weather View 32 v60,2013-07-11 13:19:00,
2013-07-11 06:30:00,57.0,51.9,29.96,WNW,286,0.0,0.0,83,0.00,,,-99.99,Weather View 32 v60,2013-07-11 13:30:00,
2013-07-11 06:39:00,57.0,51.9,29.96,NNW,336,0.0,0.0,83,0.00,,,-99.99,Weather View 32 v60,2013-07-11 13:39:00,
2013-07-11 06:49:00,56.8,51.4,29.96,SW,229,0.0,0.0,82,0.00,,,-99.99,Weather View 32 v60,2013-07-11 13:49:00,
2013-07-11 06:59:00,57.0,51.2,29.96,West,264,0.0,0.0,81,0.00,,,-99.99,Weather View 32 v60,2013-07-11 13:59:00,
2013-07-11 07:10:00,57.4,50.9,29.96,WSW,251,0.0,0.0,79,0.00,,,-99.99,Weather View 32 v60,2013-07-11 14:10:00,
2013-07-11 07:19:00,57.9,51.4,29.96,East,82,0.0,0.0,79,0.00,,,-99.99,Weather View 32 v60,2013-07-11 14:19:00,
2013-07-11 07:30:00,58.5,50.9,29.96,ENE,71,0.0,0.0,76,0.00,,,-99.99,Weather View 32 v60,2013-07-11 14:30:00,
2013-07-11 07:39:00,59.0,50.7,29.96,NW,307,0.0,0.0,74,0.00,,,-99.99,Weather View 32 v60,2013-07-11 14:39:00,
2013-07-11 07:49:00,59.5,51.2,29.96,NE,45,0.0,0.0,74,0.00,,,-99.99,Weather View 32 v60,2013-07-11 14:49:00,
2013-07-11 07:59:00,60.1,50.6,29.96,NNW,347,0.0,0.0,71,0.00,,,-99.99,Weather View 32 v60,2013-07-11 14:59:00,
2013-07-11 08:09:00,60.4,51.0,29.96,NNE,21,0.0,0.0,71,0.00,,,-99.99,Weather View 32 v60,2013-07-11 15:09:00,
2013-07-11 08:19:00,61.0,51.5,29.96,WNW,303,0.0,0.0,71,0.00,,,-99.99,Weather View 32 v60,2013-07-11 15:19:00,
2013-07-11 08:29:00,61.5,51.2,29.96,NNW,329,0.0,0.0,69,0.00,,,-99.99,Weather View 32 v60,2013-07-11 15:29:00,
2013-07-11 08:39:00,61.7,51.4,29.96,NW,322,0.0,7.0,69,0.00,,,-99.99,Weather View 32 v60,2013-07-11 15:39:00,
2013-07-11 08:49:00,61.3,51.4,29.96,West,272,3.0,10.0,70,0.00,,,-99.99,Weather View 32 v60,2013-07-11 15:49:00,
2013-07-11 08:59:00,61.5,51.2,29.96,NW,323,0.0,10.0,69,0.00,,,-99.99,Weather View 32 v60,2013-07-11 15:59:00,
2013-07-11 09:09:00,61.9,50.8,29.96,WNW,302,7.0,10.0,67,0.00,,,-99.99,Weather View 32 v60,2013-07-11 16:09:00,
2013-07-11 09:19:00,62.6,51.1,29.96,NNW,330,0.0,10.0,66,0.00,,,-99.99,Weather View 32 v60,2013-07-11 16:19:00,
2013-07-11 09:39:00,64.0,50.7,29.96,NNE,12,4.0,10.0,62,0.00,,,-99.99,Weather View 32 v60,2013-07-11 16:39:00,
2013-07-11 09:49:00,64.8,51.0,29.96,NNW,346,0.0,10.0,61,0.00,,,-99.99,Weather View 32 v60,2013-07-11 16:49:00,
2013-07-11 10:00:00,66.0,50.3,29.96,WNW,297,0.0,10.0,57,0.00,,,-99.99,Weather View 32 v60,2013-07-11 17:00:00,
2013-07-11 10:12:00,67.3,50.0,29.93,WNW,303,0.0,10.0,54,0.00,,,-99.99,Weather View 32 v60,2013-07-11 17:12:00,
2013-07-11 10:19:00,68.0,49.1,29.93,NNE,15,0.0,10.0,51,0.00,,,-99.99,Weather View 32 v60,2013-07-11 17:19:00,
2013-07-11 10:29:00,68.7,48.7,29.93,NW,305,0.0,10.0,49,0.00,,,-99.99,Weather View 32 v60,2013-07-11 17:29:00,
2013-07-11 10:39:00,69.4,49.4,29.93,WNW,288,0.0,9.0,49,0.00,,,-99.99,Weather View 32 v60,2013-07-11 17:39:00,
2013-07-11 10:59:00,70.5,48.7,29.93,North,351,0.0,8.0,46,0.00,,,-99.99,Weather View 32 v60,2013-07-11 17:59:00,
2013-07-11 11:09:00,70.5,48.1,29.93,NNE,33,3.0,8.0,45,0.00,,,-99.99,Weather View 32 v60,2013-07-11 18:09:00,
2013-07-11 11:19:00,71.6,48.5,29.93,NNW,336,0.0,8.0,44,0.00,,,-99.99,Weather View 32 v60,2013-07-11 18:19:00,
2013-07-11 11:39:00,74.1,48.2,29.93,NNW,341,0.0,8.0,40,0.00,,,-99.99,Weather View 32 v60,2013-07-11 18:39:00,
2013-07-11 11:49:00,75.6,50.1,29.93,NW,313,0.0,8.0,41,0.00,,,-99.99,Weather View 32 v60,2013-07-11 18:49:00,
2013-07-11 11:59:00,77.0,47.9,29.93,West,259,0.0,8.0,36,0.00,,,-99.99,Weather View 32 v60,2013-07-11 18:59:00,
2013-07-11 12:09:00,77.7,47.8,29.93,SW,233,3.0,7.0,35,0.00,,,-99.99,Weather View 32 v60,2013-07-11 19:09:00,
2013-07-11 12:29:00,78.1,47.3,29.93,North,2,13.0,13.0,34,0.00,,,-99.99,Weather View 32 v60,2013-07-11 19:29:00,
2013-07-11 12:49:00,79.2,49.1,29.93,West,266,0.0,13.0,35,0.00,,,-99.99,Weather View 32 v60,2013-07-11 19:49:00,
2013-07-11 12:59:00,80.2,47.6,29.93,NNE,21,3.0,13.0,32,0.00,,,-99.99,Weather View 32 v60,2013-07-11 19:59:00,
2013-07-11 13:09:00,81.3,48.5,29.93,North,356,4.0,13.0,32,0.00,,,-99.99,Weather View 32 v60,2013-07-11 20:09:00,
2013-07-11 13:19:00,82.0,48.3,29.93,NNW,328,0.0,13.0,31,0.00,,,-99.99,Weather View 32 v60,2013-07-11 20:19:00,
2013-07-11 13:29:00,82.2,47.6,29.90,WNW,297,0.0,13.0,30,0.00,,,-99.99,Weather View 32 v60,2013-07-11 20:29:00,
2013-07-11 13:49:00,84.9,44.0,29.90,WSW,237,7.0,10.0,24,0.00,,,-99.99,Weather View 32 v60,2013-07-11 20:49:00,
2013-07-11 13:59:00,86.0,49.0,29.90,WNW,302,3.0,11.0,28,0.00,,,-99.99,Weather View 32 v60,2013-07-11 20:59:00,
2013-07-11 14:09:00,85.6,48.7,29.90,WNW,289,0.0,11.0,28,0.00,,,-99.99,Weather View 32 v60,2013-07-11 21:09:00,
2013-07-11 14:15:00,85.6,48.7,29.90,WNW,289,0.0,11.0,28,0.00,,,-99.99,Weather View 32 v60,2013-07-11 21:15:00,
2013-07-11 14:39:00,86.2,49.1,29.90,WSW,242,5.0,12.0,28,0.00,,,-99.99,Weather View 32 v60,2013-07-11 21:39:00,
2013-07-11 14:49:00,85.1,48.2,29.90,NW,324,0.0,12.0,28,0.00,,,-99.99,Weather View 32 v60,2013-07-11 21:49:00,
2013-07-11 14:59:00,84.7,48.9,29.90,SW,233,6.0,12.0,29,0.00,,,-99.99,Weather View 32 v60,2013-07-11 21:59:00,
2013-07-11 15:09:00,84.6,48.7,29.90,North,351,4.0,12.0,29,0.00,,,-99.99,Weather View 32 v60,2013-07-11 22:09:00,
2013-07-11 15:15:00,84.6,48.7,29.90,North,351,4.0,12.0,29,0.00,,,-99.99,Weather View 32 v60,2013-07-11 22:15:00,
2013-07-11 15:29:00,83.1,48.4,29.90,WNW,295,0.0,12.0,30,0.00,,,-99.99,Weather View 32 v60,2013-07-11 22:29:00,
2013-07-11 16:10:00,81.9,48.2,29.87,NW,326,0.0,10.0,31,0.00,,,-99.99,Weather View 32 v60,2013-07-11 23:10:00,
2013-07-11 16:16:00,81.9,48.2,29.87,NW,326,0.0,10.0,31,0.00,,,-99.99,Weather View 32 v60,2013-07-11 23:16:00,
2013-07-11 16:30:00,81.0,47.4,29.87,SW,233,4.0,10.0,31,0.00,,,-99.99,Weather View 32 v60,2013-07-11 23:30:00,
2013-07-11 16:40:00,79.2,46.7,29.87,NNW,331,7.0,11.0,32,0.00,,,-99.99,Weather View 32 v60,2013-07-11 23:40:00,
2013-07-11 16:50:00,78.3,46.7,29.87,WNW,286,0.0,12.0,33,0.00,,,-99.99,Weather View 32 v60,2013-07-11 23:50:00,
2013-07-11 16:59:00,78.4,46.9,29.87,North,356,7.0,12.0,33,0.00,,,-99.99,Weather View 32 v60,2013-07-11 23:59:00,
2013-07-11 17:10:00,78.6,46.2,29.87,WNW,284,0.0,12.0,32,0.00,,,-99.99,Weather View 32 v60,2013-07-12 00:10:00,
2013-07-11 17:16:00,78.6,46.2,29.87,WNW,284,0.0,12.0,32,0.00,,,-99.99,Weather View 32 v60,2013-07-12 00:16:00,
2013-07-11 17:29:00,76.5,45.9,29.87,West,276,4.0,12.0,34,0.00,,,-99.99,Weather View 32 v60,2013-07-12 00:29:00,
2013-07-11 17:40:00,76.1,46.4,29.87,NNW,335,6.0,12.0,35,0.00,,,-99.99,Weather View 32 v60,2013-07-12 00:40:00,
2013-07-11 17:50:00,75.9,46.2,29.87,WNW,295,3.0,11.0,35,0.00,,,-99.99,Weather View 32 v60,2013-07-12 00:50:00,
2013-07-11 17:59:00,75.2,46.3,29.87,WSW,258,0.0,10.0,36,0.00,,,-99.99,Weather View 32 v60,2013-07-12 00:59:00,
2013-07-11 18:09:00,75.0,46.2,29.87,West,268,3.0,10.0,36,0.00,,,-99.99,Weather View 32 v60,2013-07-12 01:09:00,
2013-07-11 18:17:00,75.0,46.2,29.87,West,268,3.0,10.0,36,0.00,,,-99.99,Weather View 32 v60,2013-07-12 01:17:00,
2013-07-11 18:30:00,73.6,47.0,29.87,SSW,198,0.0,10.0,39,0.00,,,-99.99,Weather View 32 v60,2013-07-12 01:30:00,
2013-07-11 18:39:00,72.9,47.1,29.87,WNW,293,0.0,10.0,40,0.00,,,-99.99,Weather View 32 v60,2013-07-12 01:39:00,
2013-07-11 18:49:00,71.6,47.2,29.87,WNW,289,0.0,10.0,42,0.00,,,-99.99,Weather View 32 v60,2013-07-12 01:49:00,
2013-07-11 18:59:00,70.7,47.0,29.87,North,351,3.0,10.0,43,0.00,,,-99.99,Weather View 32 v60,2013-07-12 01:59:00,
2013-07-11 19:09:00,69.8,47.4,29.87,NNW,345,0.0,11.0,45,0.00,,,-99.99,Weather View 32 v60,2013-07-12 02:09:00,
2013-07-11 19:17:00,69.8,47.4,29.87,NNW,345,0.0,11.0,45,0.00,,,-99.99,Weather View 32 v60,2013-07-12 02:17:00,
2013-07-11 19:29:00,67.5,47.6,29.87,WNW,303,0.0,11.0,49,0.00,,,-99.99,Weather View 32 v60,2013-07-12 02:29:00,
2013-07-11 19:39:00,66.6,47.8,29.87,NNW,340,8.0,11.0,51,0.00,,,-99.99,Weather View 32 v60,2013-07-12 02:39:00,
2013-07-11 19:49:00,65.8,48.2,29.87,NW,308,0.0,11.0,53,0.00,,,-99.99,Weather View 32 v60,2013-07-12 02:49:00,
2013-07-11 19:59:00,65.1,48.5,29.87,WNW,296,0.0,11.0,55,0.00,,,-99.99,Weather View 32 v60,2013-07-12 02:59:00,
2013-07-11 20:18:00,64.0,48.5,29.90,WSW,258,0.0,11.0,57,0.00,,,-99.99,Weather View 32 v60,2013-07-12 03:18:00,
2013-07-11 20:29:00,62.1,49.3,29.90,WNW,295,0.0,9.0,63,0.00,,,-99.99,Weather View 32 v60,2013-07-12 03:29:00,
2013-07-11 20:40:00,61.7,49.4,29.90,West,264,3.0,8.0,64,0.00,,,-99.99,Weather View 32 v60,2013-07-12 03:40:00,
2013-07-11 20:49:00,61.5,49.6,29.90,WNW,287,0.0,8.0,65,0.00,,,-99.99,Weather View 32 v60,2013-07-12 03:49:00,
2013-07-11 20:59:00,61.0,49.5,29.90,NW,318,0.0,8.0,66,0.00,,,-99.99,Weather View 32 v60,2013-07-12 03:59:00,
2013-07-11 21:09:00,60.8,49.3,29.90,West,280,0.0,8.0,66,0.00,,,-99.99,Weather View 32 v60,2013-07-12 04:09:00,
2013-07-11 21:18:00,60.8,49.3,29.90,West,280,0.0,8.0,66,0.00,,,-99.99,Weather View 32 v60,2013-07-12 04:18:00,
2013-07-11 21:29:00,59.9,49.3,29.90,NNW,330,0.0,7.0,68,0.00,,,-99.99,Weather View 32 v60,2013-07-12 04:29:00,
2013-07-11 21:39:00,59.4,49.5,29.90,North,8,0.0,4.0,70,0.00,,,-99.99,Weather View 32 v60,2013-07-12 04:39:00,
2013-07-11 21:49:00,59.2,50.1,29.90,NE,36,0.0,4.0,72,0.00,,,-99.99,Weather View 32 v60,2013-07-12 04:49:00,
2013-07-11 21:59:00,58.8,50.2,29.90,NW,310,0.0,7.0,73,0.00,,,-99.99,Weather View 32 v60,2013-07-12 04:59:00,
2013-07-11 22:09:00,58.5,50.2,29.93,NNW,347,0.0,7.0,74,0.00,,,-99.99,Weather View 32 v60,2013-07-12 05:09:00,
2013-07-11 22:19:00,58.5,50.2,29.93,NNW,347,0.0,7.0,74,0.00,,,-99.99,Weather View 32 v60,2013-07-12 05:19:00,
2013-07-11 22:29:00,58.1,50.6,29.93,North,351,0.0,7.0,76,0.00,,,-99.99,Weather View 32 v60,2013-07-12 05:29:00,
2013-07-11 22:39:00,58.1,50.9,29.93,NNW,343,0.0,7.0,77,0.00,,,-99.99,Weather View 32 v60,2013-07-12 05:39:00,
2013-07-11 22:49:00,57.9,51.4,29.93,NNE,19,0.0,7.0,79,0.00,,,-99.99,Weather View 32 v60,2013-07-12 05:49:00,
2013-07-11 22:59:00,57.7,51.3,29.93,NNW,338,0.0,5.0,79,0.00,,,-99.99,Weather View 32 v60,2013-07-12 05:59:00,
2013-07-11 23:09:00,57.6,51.4,29.93,NW,313,0.0,0.0,80,0.00,,,-99.99,Weather View 32 v60,2013-07-12 06:09:00,
2013-07-11 23:20:00,57.4,51.2,29.93,East,85,0.0,0.0,80,0.00,,,-99.99,Weather View 32 v60,2013-07-12 06:20:00,
2013-07-11 23:29:00,57.4,51.6,29.93,NNW,332,0.0,0.0,81,0.00,,,-99.99,Weather View 32 v60,2013-07-12 06:29:00,
2013-07-11 23:39:00,57.2,51.4,29.93,NNW,331,0.0,0.0,81,0.00,,,-99.99,Weather View 32 v60,2013-07-12 06:39:00,
2013-07-11 23:49:00,57.2,51.4,29.93,NW,310,0.0,0.0,81,0.00,,,-99.99,Weather View 32 v60,2013-07-12 06:49:00,
2013-07-11 23:59:00,57.2,51.7,29.93,NNE,29,0.0,0.0,82,0.00,,,-99.99,Weather View 32 v60,2013-07-12 06:59:00,